FW2460 Weather Reports


Display with metric or nautical units.
time (UTC)temp
F
wind
direction
speed
MPH
gust
MPH
rain 1hr
in
rain 24hr
in
rain mn
in
humidity
%
barometer
mb
20260505230058 68 65 13.0 24.0 0.00 0.00 0.00 27 1005.2
20260505224542 69 46 9.0 20.0 0.00 0.00 0.00 26 1005.1
20260505223039 69 41 13.0 20.0 0.00 0.00 0.00 26 1005.2
20260505221536 68 39 13.0 19.0 0.00 0.00 0.00 26 1005.4
20260505220034 68 79 12.0 19.0 0.00 0.00 0.00 27 1005.6
20260505214533 68 65 13.0 20.0 0.00 0.00 0.00 26 1005.8
20260505213034 68 63 12.0 20.0 0.00 0.00 0.00 26 1005.7
20260505211536 69 30 11.0 17.0 0.00 0.00 0.00 25 1005.9
20260505210032 69 95 13.0 20.0 0.00 0.00 0.00 25 1005.9
20260505204543 69 65 9.0 17.0 0.00 0.00 0.00 25 1005.9
20260505203034 69 57 7.0 13.0 0.00 0.00 0.00 24 1006.0
20260505201531 69 15 11.0 14.0 0.00 0.00 0.00 23 1005.8
20260505200028 69 30 8.0 16.0 0.00 0.00 0.00 24 1006.1
20260505194534 69 309 7.0 20.0 0.00 0.00 0.00 23 1006.0
20260505193127 69 46 8.0 18.0 0.00 0.00 0.00 24 1006.0
20260505191526 68 19 9.0 16.0 0.00 0.00 0.00 25 1006.0
20260505190036 67 80 8.0 17.0 0.00 0.00 0.00 26 1006.0
20260505184531 69 149 5.0 11.0 0.00 0.00 0.00 25 1006.0
20260505183025 68 84 9.0 15.0 0.00 0.00 0.00 24 1006.6
20260505181522 67 46 9.0 14.0 0.00 0.00 0.00 24 1006.3
20260505180025 66 58 8.0 13.0 0.00 0.00 0.00 25 1006.2
20260505174519 65 24 4.0 15.0 0.00 0.00 0.00 27 1006.0
20260505173016 65 9 12.0 20.0 0.00 0.00 0.00 27 1006.2
20260505171515 65 333 14.0 20.0 0.00 0.00 0.00 26 1005.5
20260505170014 64 343 16.0 24.0 0.00 0.00 0.00 26 1005.6
20260505164514 64 335 17.0 23.0 0.00 0.00 0.00 26 1005.5
20260505163016 64 344 17.0 24.0 0.00 0.00 0.00 26 1005.9
20260505161511 64 344 14.0 20.0 0.00 0.00 0.00 27 1005.6
20260505153008 64 337 15.0 21.0 0.00 0.00 0.00 29 1005.1
20260505151505 64 326 12.0 20.0 0.00 0.00 0.00 30 1004.9
20260505124553 62 299 16.0 24.0 0.00 0.00 0.00 31 1002.3
20260505123053 63 294 20.0 31.0 0.00 0.00 0.00 27 1002.3
20260505121610 66 298 20.0 26.0 0.00 0.00 0.00 16 1002.2
20260505120035 67 292 17.0 22.0 0.00 0.00 0.00 15 1001.9
20260505114535 67 281 16.0 23.0 0.00 0.00 0.00 15 1001.6
20260505113032 68 292 17.0 22.0 0.00 0.00 0.00 13 1001.1
20260505111537 69 270 16.0 23.0 0.00 0.00 0.00 13 1000.6
20260505101525 70 267 18.0 25.0 0.00 0.00 0.00 13 1000.3
20260505100033 69 250 17.0 26.0 0.00 0.00 0.00 14 1000.4
20260505094521 70 229 16.0 26.0 0.00 0.00 0.00 13 1000.3
20260505093026 71 257 17.0 27.0 0.00 0.00 0.00 12 1000.4
20260505091518 71 273 17.0 26.0 0.00 0.00 0.00 12 1000.5
20260505090017 71 253 14.0 22.0 0.00 0.00 0.00 12 1000.7
20260505084518 72 259 14.0 21.0 0.00 0.00 0.00 11 1000.8
20260505083020 71 279 14.0 21.0 0.00 0.00 0.00 12 1000.6
20260505081516 70 236 13.0 18.0 0.00 0.00 0.00 14 1000.7
20260505080014 69 246 12.0 15.0 0.00 0.00 0.00 15 1000.9
20260505074510 68 229 10.0 14.0 0.00 0.00 0.00 15 1001.2
20260505073007 68 238 8.0 12.0 0.00 0.00 0.00 16 1001.4
20260505071502 68 209 7.0 11.0 0.00 0.00 0.00 16 1001.5
20260505070104 69 225 7.0 11.0 0.00 0.00 0.00 15 1001.6
20260505064607 70 244 8.0 13.0 0.00 0.00 0.00 15 1001.7
20260505063055 70 233 9.0 13.0 0.00 0.00 0.00 15 1001.7
20260505061554 70 209 8.0 11.0 0.00 0.00 0.00 15 1001.8
20260505060051 71 219 8.0 12.0 0.00 0.00 0.00 14 1002.1
20260505054616 72 217 9.0 14.0 0.00 0.00 0.00 13 1002.0
20260505053051 71 217 9.0 13.0 0.00 0.00 0.00 14 1002.1
20260505051548 70 200 8.0 11.0 0.00 0.00 0.00 14 1002.0
20260505041546 71 241 6.0 10.0 0.00 0.00 0.00 13 1002.3
20260505040028 71 213 8.0 10.0 0.00 0.00 0.00 13 1002.3
20260505034524 72 231 10.0 15.0 0.00 0.00 0.00 12 1002.4
20260505033023 73 240 10.0 14.0 0.00 0.00 0.00 12 1002.2
20260505031527 73 232 11.0 14.0 0.00 0.00 0.00 12 1002.3
20260505030012 74 252 10.0 13.0 0.00 0.00 0.00 11 1002.1
20260505024507 75 238 9.0 14.0 0.00 0.00 0.00 11 1001.9
20260505023002 76 237 12.0 18.0 0.00 0.00 0.00 10 1001.6
20260505021600 77 226 13.0 21.0 0.00 0.00 0.00 9 1001.7
20260505014548 78 238 13.0 18.0 0.00 0.00 0.00 9 1001.8
20260505013046 78 226 12.0 21.0 0.00 0.00 0.00 9 1001.7
20260505011540 80 193 15.0 20.0 0.00 0.00 0.00 9 1001.5
20260505010054 81 232 17.0 25.0 0.00 0.00 0.00 8 1001.7
20260505004532 81 205 16.0 24.0 0.00 0.00 0.00 8 1001.3
20260505003030 82 238 20.0 26.0 0.00 0.00 0.00 9 1001.6
20260505001525 83 215 23.0 31.0 0.00 0.00 0.00 7 1001.4
20260505000020 83 250 23.0 33.0 0.00 0.00 0.00 6 1001.8
20260504234518 84 248 18.0 28.0 0.00 0.00 0.00 6 1001.6
20260504233015 84 213 22.0 36.0 0.00 0.00 0.00 5 1001.8
20260504231511 85 214 24.0 34.0 0.00 0.00 0.00 5 1001.7